GW5514 Weather Reports


time (UTC)temp
C
wind
direction
speed
KPH
gust
KPH
rain 1hr
cm
rain 24hr
cm
rain mn
cm
humidity
%
barometer
mb
20260507030024 18 11 0.0 0.0 0.00 0.00 0.00 17 1017.7
20260507024528 18 20 0.0 0.0 0.00 0.00 0.00 17 1017.4
20260507023019 18 5 0.0 0.0 0.00 0.00 0.00 17 1017.1
20260507021522 20 346 0.0 0.0 0.00 0.00 0.00 15 1017.0
20260507020009 20 355 0.0 0.0 0.00 0.00 0.00 15 1017.0
20260507014527 21 13 0.0 0.0 0.00 0.00 0.00 15 1016.8
20260507013021 21 302 0.0 0.0 0.00 0.00 0.00 15 1016.6
20260507011522 21 349 0.0 0.0 0.00 0.00 0.00 14 1016.5
20260507010030 21 341 0.0 0.0 0.00 0.00 0.00 15 1016.4
20260507004526 22 348 0.0 0.0 0.00 0.00 0.00 15 1016.3
20260507003016 22 342 0.0 0.0 0.00 0.00 0.00 14 1016.1
20260507001523 22 5 0.0 0.0 0.00 0.00 0.00 15 1015.9
20260507000026 22 284 0.0 0.0 0.00 0.00 0.00 15 1015.7
20260506234527 22 11 0.0 0.0 0.00 0.00 0.00 15 1015.7
20260506233014 22 343 0.0 0.0 0.00 0.00 0.00 16 1015.7
20260506231518 23 27 0.0 0.0 0.00 0.00 0.00 16 1015.7
20260506230027 22 304 0.0 0.0 0.00 0.00 0.00 15 1015.7
20260506224525 23 337 0.0 0.0 0.00 0.00 0.00 16 1015.6
20260506223027 23 56 0.0 0.0 0.00 0.00 0.00 16 1015.6
20260506221529 23 14 0.0 0.0 0.00 0.00 0.00 17 1015.7
20260506220023 23 355 0.0 0.0 0.00 0.00 0.00 16 1015.8
20260506214524 23 360 0.0 0.0 0.00 0.00 0.00 16 1015.9
20260506213027 23 340 0.0 0.0 0.00 0.00 0.00 16 1015.6
20260506211530 23 47 0.0 0.0 0.00 0.00 0.00 22 1015.7
20260506210015 23 44 0.0 0.0 0.00 0.00 0.00 18 1015.8
20260506204523 23 350 0.0 0.0 0.00 0.00 0.00 18 1015.8
20260506203026 23 355 0.0 0.0 0.00 0.00 0.00 17 1015.5
20260506201525 23 294 0.0 0.0 0.00 0.00 0.00 20 1015.4
20260506200016 23 5 0.0 0.0 0.00 0.00 0.00 21 1015.5
20260506194518 23 244 0.0 0.0 0.00 0.00 0.00 24 1015.7
20260506193028 22 355 0.0 0.0 0.00 0.00 0.00 24 1015.9
20260506191508 22 343 0.0 0.0 0.00 0.00 0.00 24 1016.0
20260506190017 21 348 0.0 0.0 0.00 0.00 0.00 26 1016.0
20260506184520 21 315 0.0 0.0 0.00 0.00 0.00 25 1016.0
20260506183022 20 15 0.0 0.0 0.00 0.00 0.00 29 1016.1
20260506181522 21 346 0.0 0.0 0.00 0.00 0.00 27 1016.3
20260506180020 20 273 0.0 0.0 0.00 0.00 0.00 28 1016.2
20260506174523 20 255 0.0 0.0 0.00 0.00 0.00 28 1016.2
20260506173021 19 73 0.0 0.0 0.00 0.00 0.00 30 1016.4
20260506171534 18 236 0.0 0.0 0.00 0.00 0.00 29 1016.1
20260506170025 17 176 0.0 0.0 0.00 0.00 0.00 31 1016.1
20260506164514 17 159 0.0 0.0 0.00 0.00 0.00 31 1016.2
20260506163028 17 175 0.0 0.0 0.00 0.00 0.00 31 1016.2
20260506161525 16 186 0.0 0.0 0.00 0.00 0.00 32 1016.2
20260506160024 16 256 0.0 0.0 0.00 0.00 0.00 33 1016.2
20260506154529 15 232 0.0 0.0 0.00 0.00 0.00 34 1016.2
20260506153016 14 190 0.0 0.0 0.00 0.00 0.00 36 1016.3
20260506151524 13 103 0.0 0.0 0.00 0.00 0.00 37 1016.5
20260506150028 12 130 0.0 0.0 0.00 0.00 0.00 39 1016.7
20260506144525 11 119 0.0 0.0 0.00 0.00 0.00 40 1016.8
20260506141530 10 104 0.0 0.0 0.00 0.00 0.00 46 1016.7
20260506140027 7 119 0.0 0.0 0.00 0.00 0.00 50 1016.4
20260506134528 6 119 0.0 0.0 0.00 0.00 0.00 54 1016.3
20260506133030 5 119 0.0 0.0 0.00 0.00 0.00 56 1016.0
20260506131526 4 119 0.0 0.0 0.00 0.00 0.00 60 1015.9
20260506130026 3 119 0.0 0.0 0.00 0.00 0.00 59 1015.7
20260506124523 3 119 0.0 0.0 0.00 0.00 0.00 59 1015.5
20260506123026 4 119 0.0 0.0 0.00 0.00 0.00 55 1015.2
20260506120014 5 119 0.0 0.0 0.00 0.00 0.00 56 1014.6
20260506114531 5 119 0.0 0.0 0.00 0.00 0.00 54 1014.4
20260506113019 5 119 0.0 0.0 0.00 0.00 0.00 53 1014.4
20260506104519 6 119 0.0 0.0 0.00 0.00 0.00 52 1014.1
20260506103018 7 119 0.0 0.0 0.00 0.00 0.00 50 1014.0
20260506094513 8 119 0.0 0.0 0.00 0.00 0.00 42 1013.7
20260506093016 9 119 0.0 0.0 0.00 0.00 0.00 40 1013.6
20260506091522 9 119 0.0 0.0 0.00 0.00 0.00 39 1013.5
20260506084510 10 118 0.0 0.0 0.00 0.00 0.00 37 1013.2
20260506073012 11 214 0.0 0.0 0.00 0.00 0.00 34 1013.1
20260506071524 12 207 0.0 0.0 0.00 0.00 0.00 33 1013.1
20260506061524 12 213 0.0 0.0 0.00 0.00 0.00 34 1012.8
20260506044528 13 283 0.0 0.0 0.00 0.00 0.00 29 1012.1
20260506041525 13 227 0.0 0.0 0.00 0.00 0.00 31 1011.6
20260506040026 14 250 0.0 0.0 0.00 0.00 0.00 31 1011.3
20260506034518 14 219 0.0 0.0 0.00 0.00 0.00 30 1011.0
20260506033032 14 206 0.0 0.0 0.00 0.00 0.00 30 1010.7
20260506031533 15 255 0.0 0.0 0.00 0.00 0.00 28 1010.3